BLOCK DM-SL R/B, 25662

Orbit data source: Space-Track

BLOCK DM-SL R/B, 25662 is space debris in HEO originally from a launch on Sun, 28 Mar 1999 UTC launched from the Sea Launch (SEAL). Debris objects in space refer to the collection of defunct objects orbiting the Earth. Examples of debris include non-operational satellites, rocket bodies, and fragments generated from explosions, collisions, or faulty payload assembly.

Loading next visibility...
Identifier
25662, 1999-014B
Orbit
HEO
Country
Flag of UnknownUnknown / SEAL
Related business
Manufacturer
RKKE
Mission
Spacecraft
Bus & Motor
BLOK DM2, Unknown motor
Mass
~3,210 kg wet, ~3,210 kg dry
Launch date (UTC)
1999-03-28 (27 years ago)
Launch vehicle
Unknown
Launch site
Sea Launch (SEAL)
Object type
Payload
Rocket body
Debris
Shape & HBR
Cyl, 3.1 m
Radar Cross Section
23.684 m², Large (>1 m²)

Expand to show TLE details & history
Last TLE update: 9 hours ago

TLE from 9 hours ago
0 BLOCK DM-SL R/B
1 25662U 99014B   25346.92980894  .00000006  00000-0  13548-2 0  9992
2 25662   1.5664 345.1500 7185729 306.2317 192.1524  2.24371668218963
Epoch: 2025-12-12T22:18Z
TLE epoch observation values (Epoch: 2025-12-12T22:18:55.492Z)
Latitude
1.21954°
Longitude
57.62651°
Altitude
35,843.639 km
Speed
1.646 km/s
True Right ascension
07h 36m 53s
True Declination
1° 13' 06"
Sunlit
Object was in daylight at epoch
Visualization orbit readout
Latitude
Unknown
Longitude
Unknown
Altitude
Unknown
Speed
Unknown
Apparent Right ascension
Unknown
Apparent Declination
Unknown
Sunlit
N/A
Visualization observer readout
Local Sidereal Time
05:28:42
Azimuth
Unknown
Elevation
Unknown
Doppler factor
Unknown
Orbital elements
Apogee altitude
35,987.938 km
Perigee altitude
559.574 km
Semi-major axis
24,651.893 km
Eccentricity
0.71857
Inclination
1.5664°
RAAN
345.15°
Arg. of periapsis
306.2317°
True anomaly
182.86759°
Mean anomaly
192.1524°
Eccentric anomaly
187.07874°
Mean motion
0.56075 °/min
Orbital period
642 mins
BSTAR
0.0013548
Loading maneuver chart data...
Computing Atmospheric mass density...
Loading historical data...
Loading historical data...
Loading historical data...
Loading historical data...
Loading historical data...
Loading historical data...
Loading historical data...
Other satellites on launch #14 in the year 1999 (1999-03-28 UTC)

Documentation

Showing up to 5 results
|